| time (UTC) | temp F | wind direction | speed knots | gust knots | rain 1hr in | rain 24hr in | rain mn in | humidity % | barometer mb |
| 20260906140135 | 70 | 167 | 1.7 | 2.6 | 0.00 | 0.00 | 0.00 | 82 | |
| 20260906135632 | 70 | 64 | 4.3 | 6.1 | 0.00 | 0.00 | 0.00 | 81 | |
| 20260906135128 | 70 | 69 | 2.6 | 3.5 | 0.00 | 0.00 | 0.00 | 83 | |
| 20260906134623 | 70 | 59 | 1.7 | 2.6 | 0.00 | 0.00 | 0.00 | 85 | |
| 20260906134118 | 70 | 129 | 1.7 | 2.6 | 0.00 | 0.00 | 0.00 | 85 | |
| 20260906133614 | 70 | 113 | 0.9 | 1.7 | 0.00 | 0.00 | 0.00 | 85 | |
| 20260906133108 | 70 | 189 | 0.9 | 2.6 | 0.00 | 0.00 | 0.00 | 86 | |
| 20260906132603 | 70 | 22 | 1.7 | 3.5 | 0.00 | 0.00 | 0.00 | 86 | |
| 20260906132059 | 69 | 72 | 0.9 | 2.6 | 0.00 | 0.00 | 0.00 | 88 | |
| 20260906131554 | 70 | 159 | 0.0 | 2.6 | 0.00 | 0.00 | 0.00 | 89 | |
| 20260906131050 | 69 | 88 | 0.9 | 0.9 | 0.00 | 0.00 | 0.00 | 91 | |
| 20260906130549 | 69 | 57 | 0.9 | 1.7 | 0.00 | 0.00 | 0.00 | 93 | |
| 20260906130045 | 68 | 11 | 0.9 | 0.9 | 0.00 | 0.00 | 0.00 | 94 | |
| 20260906125543 | 67 | 49 | 0.0 | 2.6 | 0.00 | 0.00 | 0.00 | 94 | |
| 20260906125042 | 67 | 18 | 0.9 | 1.7 | 0.00 | 0.00 | 0.00 | 95 | |
| 20260906124538 | 66 | 32 | 0.0 | 0.9 | 0.00 | 0.00 | 0.00 | 96 | |
| 20260906124032 | 65 | 80 | 0.0 | 0.0 | 0.00 | 0.00 | 0.00 | 97 | |
| 20260906123532 | 64 | 26 | 0.0 | 0.0 | 0.00 | 0.00 | 0.00 | 98 | |
| 20260906123027 | 64 | 46 | 0.0 | 0.9 | 0.00 | 0.00 | 0.00 | 98 | |
| 20260906122526 | 64 | 18 | 0.0 | 0.0 | 0.00 | 0.00 | 0.00 | 98 | |
| 20260906122023 | 63 | 68 | 0.0 | 0.0 | 0.00 | 0.00 | 0.00 | 98 | |
| 20260906121519 | 63 | 15 | 0.0 | 0.0 | 0.00 | 0.00 | 0.00 | 97 | |
| 20260906121015 | 63 | 33 | 0.0 | 0.0 | 0.00 | 0.00 | 0.00 | 98 | |
| 20260906120515 | 63 | 26 | 0.0 | 0.0 | 0.00 | 0.00 | 0.00 | 97 | |
| 20260906120014 | 63 | 38 | 0.0 | 0.0 | 0.00 | 0.00 | 0.00 | 98 | |
| 20260906115508 | 63 | 59 | 0.0 | 0.9 | 0.00 | 0.00 | 0.00 | 97 | |
| 20260906115008 | 62 | 72 | 0.0 | 0.0 | 0.00 | 0.00 | 0.00 | 97 | |
| 20260906114502 | 62 | 11 | 0.0 | 0.0 | 0.00 | 0.00 | 0.00 | 97 | |
| 20260906113958 | 62 | 27 | 0.0 | 0.0 | 0.00 | 0.00 | 0.00 | 97 | |
| 20260906113456 | 62 | 68 | 0.0 | 0.0 | 0.00 | 0.00 | 0.00 | 97 | |
| 20260906112952 | 62 | 68 | 0.0 | 0.9 | 0.00 | 0.00 | 0.00 | 97 | |
| 20260906112447 | 62 | 0 | 0.0 | 0.0 | 0.00 | 0.00 | 0.00 | 97 | |
| 20260906111943 | 63 | 0 | 0.0 | 0.0 | 0.00 | 0.00 | 0.00 | 97 | |
| 20260906111442 | 63 | 12 | 0.0 | 0.9 | 0.00 | 0.00 | 0.00 | 97 | |
| 20260906110937 | 63 | 22 | 0.0 | 1.7 | 0.00 | 0.00 | 0.00 | 97 | |
| 20260906110433 | 63 | 357 | 0.0 | 0.0 | 0.00 | 0.00 | 0.00 | 97 | |
| 20260906105931 | 63 | 5 | 0.0 | 0.0 | 0.00 | 0.00 | 0.00 | 97 | |
| 20260906105427 | 63 | 5 | 0.9 | 1.7 | 0.00 | 0.00 | 0.00 | 97 | |
| 20260906104923 | 63 | 0 | 0.0 | 0.9 | 0.00 | 0.00 | 0.00 | 97 | |
| 20260906104422 | 63 | 347 | 0.9 | 1.7 | 0.00 | 0.00 | 0.00 | 97 | |
| 20260906103921 | 63 | 16 | 0.0 | 0.0 | 0.00 | 0.00 | 0.00 | 97 | |
| 20260906103419 | 63 | 103 | 0.0 | 0.0 | 0.00 | 0.00 | 0.00 | 97 | |
| 20260906102915 | 63 | 85 | 0.0 | 0.0 | 0.00 | 0.00 | 0.00 | 96 | |
| 20260906102415 | 63 | 85 | 0.0 | 0.0 | 0.00 | 0.00 | 0.00 | 96 | |
| 20260906101909 | 63 | 58 | 0.0 | 0.0 | 0.00 | 0.00 | 0.00 | 96 | |
| 20260906101405 | 63 | 58 | 0.0 | 0.0 | 0.00 | 0.00 | 0.00 | 96 | |
| 20260906100900 | 63 | 23 | 0.0 | 0.0 | 0.00 | 0.00 | 0.00 | 96 | |
| 20260906100359 | 63 | 20 | 0.0 | 1.7 | 0.00 | 0.00 | 0.00 | 96 | |
| 20260906095854 | 63 | 9 | 0.0 | 0.0 | 0.00 | 0.00 | 0.00 | 96 | |
| 20260906095350 | 64 | 37 | 1.7 | 1.7 | 0.00 | 0.00 | 0.00 | 96 | |
| 20260906094849 | 64 | 37 | 1.7 | 1.7 | 0.00 | 0.00 | 0.00 | 96 | |
| 20260906094344 | 64 | 5 | 0.0 | 2.6 | 0.00 | 0.00 | 0.00 | 96 | |
| 20260906093841 | 64 | 356 | 1.7 | 2.6 | 0.00 | 0.00 | 0.00 | 96 | |
| 20260906093337 | 64 | 354 | 0.9 | 1.7 | 0.00 | 0.00 | 0.00 | 95 | |
| 20260906092831 | 64 | 19 | 0.0 | 0.9 | 0.00 | 0.00 | 0.00 | 95 | |
| 20260906092331 | 64 | 350 | 0.9 | 2.6 | 0.00 | 0.00 | 0.00 | 96 | |
| 20260906091827 | 64 | 330 | 1.7 | 2.6 | 0.00 | 0.00 | 0.00 | 95 | |
| 20260906091323 | 64 | 16 | 0.9 | 1.7 | 0.00 | 0.00 | 0.00 | 95 | |
| 20260906090819 | 64 | 356 | 1.7 | 1.7 | 0.00 | 0.00 | 0.00 | 95 | |
| 20260906090318 | 64 | 5 | 0.9 | 1.7 | 0.00 | 0.00 | 0.00 | 95 | |
| 20260906085818 | 64 | 9 | 0.0 | 1.7 | 0.00 | 0.00 | 0.00 | 94 | |
| 20260906085317 | 64 | 35 | 0.0 | 1.7 | 0.00 | 0.00 | 0.00 | 94 | |
| 20260906084812 | 64 | 9 | 1.7 | 2.6 | 0.00 | 0.00 | 0.00 | 94 | |
| 20260906084312 | 64 | 9 | 1.7 | 2.6 | 0.00 | 0.00 | 0.00 | 94 | |
| 20260906083807 | 64 | 9 | 1.7 | 2.6 | 0.00 | 0.00 | 0.00 | 94 | |
| 20260906083303 | 64 | 357 | 0.9 | 1.7 | 0.00 | 0.00 | 0.00 | 94 | |
| 20260906082757 | 64 | 357 | 0.9 | 1.7 | 0.00 | 0.00 | 0.00 | 94 | |
| 20260906082252 | 64 | 0 | 1.7 | 2.6 | 0.00 | 0.00 | 0.00 | 94 | |
| 20260906081748 | 64 | 5 | 1.7 | 2.6 | 0.00 | 0.00 | 0.00 | 94 | |
| 20260906081243 | 64 | 7 | 0.9 | 1.7 | 0.00 | 0.00 | 0.00 | 94 | |
| 20260906080739 | 64 | 4 | 0.9 | 1.7 | 0.00 | 0.00 | 0.00 | 94 | |
| 20260906080236 | 64 | 20 | 1.7 | 1.7 | 0.00 | 0.00 | 0.00 | 94 | |
| 20260906075735 | 65 | 358 | 0.9 | 0.9 | 0.00 | 0.00 | 0.00 | 94 | |
| 20260906075235 | 65 | 9 | 0.9 | 1.7 | 0.00 | 0.00 | 0.00 | 94 | |
| 20260906074731 | 65 | 9 | 0.9 | 1.7 | 0.00 | 0.00 | 0.00 | 94 | |
| 20260906074230 | 65 | 27 | 0.9 | 1.7 | 0.00 | 0.00 | 0.00 | 95 | |
| 20260906073730 | 64 | 7 | 1.7 | 1.7 | 0.00 | 0.00 | 0.00 | 95 | |
| 20260906073225 | 64 | 28 | 1.7 | 1.7 | 0.00 | 0.00 | 0.00 | 95 | |
| 20260906072721 | 64 | 353 | 1.7 | 1.7 | 0.00 | 0.00 | 0.00 | 95 | |
| 20260906072216 | 64 | 354 | 0.9 | 1.7 | 0.00 | 0.00 | 0.00 | 95 | |
| 20260906071712 | 64 | 355 | 1.7 | 1.7 | 0.00 | 0.00 | 0.00 | 96 | |
| 20260906071212 | 64 | 350 | 1.7 | 1.7 | 0.00 | 0.00 | 0.00 | 96 | |
| 20260906070709 | 64 | 353 | 0.9 | 1.7 | 0.00 | 0.00 | 0.00 | 96 | |
| 20260906070204 | 64 | 349 | 0.9 | 1.7 | 0.00 | 0.00 | 0.00 | 96 | |
| 20260906065703 | 63 | 336 | 0.0 | 0.9 | 0.00 | 0.00 | 0.00 | 96 | |
| 20260906065159 | 63 | 3 | 1.7 | 1.7 | 0.00 | 0.00 | 0.00 | 96 | |
| 20260906064654 | 63 | 344 | 0.9 | 1.7 | 0.00 | 0.00 | 0.00 | 96 | |
| 20260906064149 | 63 | 346 | 1.7 | 1.7 | 0.00 | 0.00 | 0.00 | 96 | |
| 20260906063644 | 62 | 344 | 0.9 | 1.7 | 0.00 | 0.00 | 0.00 | 96 | |
| 20260906063140 | 62 | 341 | 0.9 | 1.7 | 0.00 | 0.00 | 0.00 | 96 | |
| 20260906062636 | 62 | 336 | 0.9 | 0.9 | 0.00 | 0.00 | 0.00 | 96 | |
| 20260906062134 | 62 | 336 | 0.9 | 1.7 | 0.00 | 0.00 | 0.00 | 96 | |
| 20260906061631 | 62 | 344 | 0.9 | 1.7 | 0.00 | 0.00 | 0.00 | 95 | |
| 20260906061131 | 63 | 343 | 0.9 | 1.7 | 0.00 | 0.00 | 0.00 | 95 | |
| 20260906060628 | 63 | 349 | 0.0 | 0.9 | 0.00 | 0.00 | 0.00 | 95 | |
| 20260906060125 | 63 | 343 | 1.7 | 1.7 | 0.00 | 0.00 | 0.00 | 95 | |
| 20260906055620 | 63 | 347 | 1.7 | 1.7 | 0.00 | 0.00 | 0.00 | 94 | |
| 20260906055115 | 64 | 358 | 1.7 | 2.6 | 0.00 | 0.00 | 0.00 | 94 | |
| 20260906054610 | 64 | 6 | 0.9 | 1.7 | 0.00 | 0.00 | 0.00 | 94 | |
| 20260906054105 | 64 | 359 | 4.3 | 5.2 | 0.00 | 0.00 | 0.00 | 95 | |
| 20260906053602 | 64 | 353 | 1.7 | 5.2 | 0.00 | 0.00 | 0.00 | 95 | |
| 20260906053057 | 64 | 359 | 1.7 | 2.6 | 0.00 | 0.00 | 0.00 | 95 | |
| 20260906052552 | 64 | 37 | 1.7 | 3.5 | 0.00 | 0.00 | 0.00 | 95 | |
| 20260906052049 | 64 | 5 | 1.7 | 2.6 | 0.00 | 0.00 | 0.00 | 95 | |
| 20260906051544 | 64 | 1 | 0.0 | 0.9 | 0.00 | 0.00 | 0.00 | 95 | |
| 20260906051040 | 64 | 14 | 0.9 | 1.7 | 0.00 | 0.00 | 0.00 | 94 | |
| 20260906050535 | 64 | 355 | 1.7 | 3.5 | 0.00 | 0.00 | 0.00 | 95 | |
| 20260906050030 | 64 | 346 | 2.6 | 2.6 | 0.00 | 0.00 | 0.00 | 95 | |
| 20260906045528 | 64 | 0 | 3.5 | 5.2 | 0.00 | 0.00 | 0.00 | 95 | |
| 20260906045024 | 64 | 343 | 0.0 | 1.7 | 0.00 | 0.00 | 0.00 | 95 | |
| 20260906044520 | 64 | 347 | 0.9 | 0.9 | 0.00 | 0.00 | 0.00 | 95 | |
| 20260906044015 | 64 | 2 | 0.0 | 2.6 | 0.00 | 0.00 | 0.00 | 95 | |
| 20260906043510 | 64 | 43 | 0.0 | 0.9 | 0.00 | 0.00 | 0.00 | 94 | |
| 20260906043007 | 64 | 28 | 0.0 | 0.9 | 0.00 | 0.00 | 0.00 | 94 | |
| 20260906042505 | 64 | 3 | 1.7 | 1.7 | 0.00 | 0.00 | 0.00 | 94 | |
| 20260906042005 | 64 | 5 | 1.7 | 3.5 | 0.00 | 0.00 | 0.00 | 94 | |
| 20260906041502 | 64 | 337 | 1.7 | 1.7 | 0.00 | 0.00 | 0.00 | 94 | |
| 20260906041001 | 64 | 350 | 2.6 | 2.6 | 0.00 | 0.00 | 0.00 | 94 | |
| 20260906040456 | 64 | 1 | 0.0 | 1.7 | 0.00 | 0.00 | 0.00 | 94 | |
| 20260906035951 | 63 | 348 | 1.7 | 1.7 | 0.00 | 0.00 | 0.00 | 94 | |
| 20260906035447 | 63 | 70 | 0.0 | 0.0 | 0.00 | 0.00 | 0.00 | 93 | |
| 20260906034943 | 64 | 83 | 0.0 | 0.0 | 0.00 | 0.00 | 0.00 | 93 | |
| 20260906034443 | 64 | 84 | 0.0 | 0.0 | 0.00 | 0.00 | 0.00 | 93 | |
| 20260906033938 | 64 | 95 | 0.0 | 0.0 | 0.00 | 0.00 | 0.00 | 93 | |
| 20260906033438 | 64 | 350 | 0.9 | 0.9 | 0.00 | 0.00 | 0.00 | 93 | |
| 20260906032934 | 64 | 56 | 0.0 | 0.9 | 0.00 | 0.00 | 0.00 | 92 | |
| 20260906032431 | 64 | 5 | 0.0 | 1.7 | 0.00 | 0.00 | 0.00 | 92 | |
| 20260906031930 | 65 | 42 | 0.0 | 1.7 | 0.00 | 0.00 | 0.00 | 92 | |
| 20260906031426 | 65 | 309 | 0.9 | 2.6 | 0.00 | 0.00 | 0.00 | 92 | |
| 20260906030921 | 65 | 2 | 0.9 | 2.6 | 0.00 | 0.00 | 0.00 | 93 | |
| 20260906030416 | 65 | 331 | 0.0 | 1.7 | 0.00 | 0.00 | 0.00 | 93 | |
| 20260906025911 | 65 | 107 | 0.0 | 0.9 | 0.00 | 0.00 | 0.00 | 94 | |
| 20260906025410 | 65 | 313 | 0.0 | 1.7 | 0.00 | 0.00 | 0.00 | 94 | |
| 20260906024909 | 65 | 32 | 0.0 | 0.9 | 0.00 | 0.00 | 0.00 | 94 | |
| 20260906024408 | 65 | 89 | 0.0 | 2.6 | 0.00 | 0.00 | 0.00 | 95 | |
| 20260906023904 | 65 | 24 | 3.5 | 5.2 | 0.00 | 0.00 | 0.00 | 96 | |
| 20260906023400 | 65 | 53 | 0.0 | 0.0 | 0.00 | 0.00 | 0.00 | 96 | |
| 20260906022900 | 65 | 119 | 0.0 | 0.0 | 0.00 | 0.00 | 0.00 | 95 | |
| 20260906022355 | 65 | 0 | 0.0 | 0.0 | 0.00 | 0.00 | 0.00 | 95 | |
| 20260906021851 | 65 | 96 | 0.0 | 0.0 | 0.00 | 0.00 | 0.00 | 95 | |
| 20260906021350 | 65 | 96 | 0.0 | 0.0 | 0.00 | 0.00 | 0.00 | 94 | |
| 20260906020845 | 65 | 96 | 0.0 | 0.0 | 0.00 | 0.00 | 0.00 | 94 | |
| 20260906020344 | 66 | 96 | 0.0 | 0.0 | 0.00 | 0.00 | 0.00 | 94 | |
| 20260906015839 | 66 | 96 | 0.0 | 0.0 | 0.00 | 0.00 | 0.00 | 94 | |
| 20260906015339 | 66 | 97 | 0.0 | 0.0 | 0.00 | 0.00 | 0.00 | 94 | |
| 20260906014838 | 66 | 97 | 0.0 | 0.0 | 0.00 | 0.00 | 0.00 | 94 | |
| 20260906014333 | 66 | 101 | 0.0 | 0.0 | 0.00 | 0.00 | 0.00 | 94 | |
| 20260906013829 | 67 | 110 | 0.0 | 0.0 | 0.00 | 0.00 | 0.00 | 93 | |
| 20260906013325 | 67 | 110 | 0.0 | 0.0 | 0.00 | 0.00 | 0.00 | 93 | |
| 20260906012820 | 68 | 111 | 0.0 | 0.0 | 0.00 | 0.00 | 0.00 | 92 | |
| 20260906012320 | 68 | 110 | 0.0 | 0.0 | 0.00 | 0.00 | 0.00 | 91 | |
| 20260906011815 | 68 | 110 | 0.0 | 0.0 | 0.00 | 0.00 | 0.00 | 91 | |
| 20260906011315 | 69 | 69 | 0.0 | 0.0 | 0.00 | 0.00 | 0.00 | 91 | |
| 20260906010811 | 69 | 336 | 0.9 | 0.9 | 0.00 | 0.00 | 0.00 | 90 | |
| 20260906010307 | 69 | 56 | 0.0 | 0.9 | 0.00 | 0.00 | 0.00 | 90 | |
| 20260906005802 | 69 | 290 | 0.9 | 1.7 | 0.00 | 0.00 | 0.00 | 90 | |
| 20260906005301 | 69 | 93 | 0.9 | 1.7 | 0.00 | 0.00 | 0.00 | 90 | |
| 20260906004800 | 69 | 28 | 0.9 | 1.7 | 0.00 | 0.00 | 0.00 | 90 | |
| 20260906004255 | 69 | 354 | 1.7 | 2.6 | 0.00 | 0.00 | 0.00 | 90 | |
| 20260906003755 | 69 | 356 | 0.0 | 1.7 | 0.00 | 0.00 | 0.00 | 90 | |
| 20260906003251 | 69 | 3 | 1.7 | 2.6 | 0.00 | 0.00 | 0.00 | 90 | |
| 20260906002746 | 69 | 14 | 0.0 | 1.7 | 0.00 | 0.00 | 0.00 | 90 | |
| 20260906002246 | 69 | 332 | 0.0 | 1.7 | 0.00 | 0.00 | 0.00 | 90 | |
| 20260906001742 | 69 | 57 | 0.0 | 1.7 | 0.00 | 0.00 | 0.00 | 90 | |
| 20260906001237 | 69 | 38 | 0.0 | 3.5 | 0.00 | 0.00 | 0.00 | 90 | |
| 20260906000732 | 69 | 24 | 1.7 | 2.6 | 0.00 | 0.00 | 0.00 | 90 | |
| 20260906000234 | 69 | 45 | 5.2 | 7.0 | 0.00 | 0.00 | 0.00 | 89 | |
| 20260905235727 | 70 | 333 | 0.9 | 2.6 | 0.00 | 0.00 | 0.00 | 90 | |
| 20260905235221 | 70 | 19 | 0.9 | 3.5 | 0.00 | 0.00 | 0.00 | 90 | |
| 20260905234717 | 70 | 351 | 1.7 | 5.2 | 0.00 | 0.00 | 0.00 | 90 | |
| 20260905234212 | 70 | 12 | 0.9 | 1.7 | 0.00 | 0.00 | 0.00 | 90 | |
| 20260905233707 | 70 | 21 | 0.9 | 2.6 | 0.00 | 0.00 | 0.00 | 91 | |
| 20260905233207 | 70 | 32 | 1.7 | 2.6 | 0.00 | 0.00 | 0.00 | 90 | |
| 20260905232702 | 70 | 352 | 0.9 | 1.7 | 0.00 | 0.00 | 0.00 | 90 | |
| 20260905232157 | 71 | 346 | 2.6 | 3.5 | 0.00 | 0.00 | 0.00 | 89 | |
| 20260905231653 | 71 | 46 | 0.0 | 1.7 | 0.00 | 0.00 | 0.00 | 89 | |
| 20260905231149 | 71 | 73 | 0.9 | 2.6 | 0.00 | 0.00 | 0.00 | 89 | |
| 20260905230644 | 71 | 332 | 0.0 | 1.7 | 0.00 | 0.00 | 0.00 | 89 | |
| 20260905230142 | 71 | 318 | 0.0 | 2.6 | 0.00 | 0.00 | 0.00 | 88 | |
| 20260905225642 | 72 | 3 | 0.0 | 2.6 | 0.00 | 0.00 | 0.00 | 88 | |
| 20260905225142 | 72 | 61 | 0.9 | 3.5 | 0.00 | 0.00 | 0.00 | 87 | |
| 20260905224642 | 73 | 50 | 1.7 | 2.6 | 0.00 | 0.00 | 0.00 | 87 | |
| 20260905224142 | 73 | 64 | 0.0 | 3.5 | 0.00 | 0.00 | 0.00 | 87 | |
| 20260905223639 | 73 | 11 | 3.5 | 5.2 | 0.00 | 0.00 | 0.00 | 85 | |
| 20260905223135 | 74 | 66 | 0.0 | 2.6 | 0.00 | 0.00 | 0.00 | 85 | |
| 20260905222631 | 74 | 298 | 0.0 | 1.7 | 0.00 | 0.00 | 0.00 | 87 | |
| 20260905222125 | 74 | 17 | 0.0 | 2.6 | 0.00 | 0.00 | 0.00 | 87 | |
| 20260905221621 | 72 | 10 | 0.9 | 2.6 | 0.00 | 0.00 | 0.00 | 89 | |
| 20260905221118 | 72 | 10 | 0.9 | 2.6 | 0.00 | 0.00 | 0.00 | 89 | |
| 20260905220613 | 72 | 48 | 1.7 | 2.6 | 0.00 | 0.00 | 0.00 | 89 | |
| 20260905220109 | 72 | 27 | 3.5 | 3.5 | 0.00 | 0.00 | 0.00 | 89 | |
| 20260905215608 | 72 | 348 | 2.6 | 3.5 | 0.00 | 0.00 | 0.00 | 89 | |
| 20260905215104 | 72 | 2 | 3.5 | 6.1 | 0.00 | 0.00 | 0.00 | 88 | |
| 20260905214601 | 72 | 27 | 0.9 | 2.6 | 0.00 | 0.00 | 0.00 | 89 | |
| 20260905214100 | 72 | 336 | 0.9 | 3.5 | 0.00 | 0.00 | 0.00 | 88 | |
| 20260905213601 | 72 | 33 | 3.5 | 5.2 | 0.00 | 0.00 | 0.00 | 89 | |
| 20260905213056 | 72 | 352 | 3.5 | 3.5 | 0.00 | 0.00 | 0.00 | 89 | |
| 20260905212556 | 72 | 341 | 2.6 | 2.6 | 0.00 | 0.00 | 0.00 | 89 | |
| 20260905212056 | 72 | 359 | 2.6 | 7.8 | 0.00 | 0.00 | 0.00 | 89 | |
| 20260905211551 | 73 | 3 | 3.5 | 11.3 | 0.00 | 0.00 | 0.00 | 89 | |
| 20260905211047 | 73 | 80 | 2.6 | 2.6 | 0.00 | 0.00 | 0.00 | 89 | |
| 20260905210543 | 73 | 21 | 3.5 | 7.0 | 0.00 | 0.00 | 0.00 | 89 | |
| 20260905210038 | 73 | 0 | 0.9 | 5.2 | 0.00 | 0.00 | 0.00 | 89 | |
| 20260905205537 | 73 | 11 | 3.5 | 5.2 | 0.00 | 0.00 | 0.00 | 90 | |
| 20260905205036 | 72 | 24 | 2.6 | 3.5 | 0.00 | 0.00 | 0.00 | 91 | |
| 20260905204531 | 72 | 332 | 3.5 | 5.2 | 0.00 | 0.00 | 0.00 | 90 | |
| 20260905204026 | 72 | 356 | 2.6 | 3.5 | 0.00 | 0.00 | 0.00 | 91 | |
| 20260905203526 | 72 | 18 | 3.5 | 6.1 | 0.00 | 0.00 | 0.00 | 90 | |
| 20260905203022 | 72 | 330 | 2.6 | 6.1 | 0.00 | 0.00 | 0.00 | 90 | |
| 20260905202517 | 73 | 7 | 1.7 | 5.2 | 0.00 | 0.00 | 0.00 | 89 | |
| 20260905202012 | 73 | 16 | 3.5 | 6.1 | 0.00 | 0.00 | 0.00 | 89 | |
| 20260905201508 | 73 | 52 | 4.3 | 7.0 | 0.00 | 0.00 | 0.00 | 88 | |
| 20260905201007 | 74 | 20 | 4.3 | 7.8 | 0.00 | 0.00 | 0.00 | 87 | |
| 20260905200503 | 74 | 8 | 6.1 | 7.0 | 0.00 | 0.00 | 0.00 | 87 | |
| 20260905200002 | 74 | 18 | 3.5 | 3.5 | 0.00 | 0.00 | 0.00 | 88 | |
| 20260905195456 | 75 | 0 | 5.2 | 7.0 | 0.00 | 0.00 | 0.00 | 86 | |
| 20260905194952 | 75 | 5 | 6.1 | 7.8 | 0.00 | 0.00 | 0.00 | 86 | |
| 20260905194451 | 74 | 6 | 3.5 | 7.8 | 0.00 | 0.00 | 0.00 | 88 | |
| 20260905193946 | 74 | 6 | 3.5 | 7.8 | 0.00 | 0.00 | 0.00 | 88 | |
| 20260905193446 | 75 | 12 | 3.5 | 8.7 | 0.00 | 0.00 | 0.00 | 88 | |
| 20260905192941 | 75 | 4 | 2.6 | 11.3 | 0.00 | 0.00 | 0.00 | 87 | |
| 20260905192437 | 75 | 339 | 4.3 | 7.8 | 0.00 | 0.00 | 0.00 | 87 | |
| 20260905191932 | 75 | 54 | 4.3 | 6.1 | 0.00 | 0.00 | 0.00 | 88 | |
| 20260905191432 | 75 | 14 | 3.5 | 6.1 | 0.00 | 0.00 | 0.00 | 88 | |
| 20260905190931 | 75 | 14 | 3.5 | 6.1 | 0.00 | 0.00 | 0.00 | 88 | |
| 20260905190429 | 74 | 16 | 2.6 | 5.2 | 0.00 | 0.00 | 0.00 | 88 | |
| 20260905185928 | 74 | 37 | 5.2 | 7.8 | 0.00 | 0.00 | 0.00 | 87 | |
| 20260905185423 | 74 | 23 | 3.5 | 8.7 | 0.00 | 0.00 | 0.00 | 89 | |
| 20260905184921 | 74 | 22 | 2.6 | 7.0 | 0.00 | 0.00 | 0.00 | 89 | |
| 20260905184417 | 74 | 5 | 7.0 | 8.7 | 0.00 | 0.00 | 0.00 | 88 | |
| 20260905183915 | 75 | 331 | 5.2 | 7.8 | 0.00 | 0.00 | 0.00 | 88 | |
| 20260905183410 | 75 | 6 | 5.2 | 7.0 | 0.00 | 0.00 | 0.00 | 88 | |
| 20260905182905 | 75 | 344 | 3.5 | 7.8 | 0.00 | 0.00 | 0.00 | 87 | |
| 20260905182404 | 75 | 354 | 4.3 | 7.0 | 0.00 | 0.00 | 0.00 | 88 | |
| 20260905181900 | 75 | 354 | 4.3 | 7.0 | 0.00 | 0.00 | 0.00 | 88 | |
| 20260905181400 | 75 | 358 | 3.5 | 6.1 | 0.00 | 0.00 | 0.00 | 88 | |
| 20260905180859 | 75 | 320 | 3.5 | 6.1 | 0.00 | 0.00 | 0.00 | 87 | |
| 20260905180355 | 75 | 322 | 4.3 | 6.1 | 0.00 | 0.00 | 0.00 | 87 | |
| 20260905175850 | 75 | 345 | 4.3 | 6.1 | 0.00 | 0.00 | 0.00 | 87 | |
| 20260905175349 | 75 | 350 | 3.5 | 3.5 | 0.00 | 0.00 | 0.00 | 88 | |
| 20260905174850 | 76 | 28 | 3.5 | 5.2 | 0.00 | 0.00 | 0.00 | 86 | |
| 20260905174346 | 76 | 5 | 1.7 | 3.5 | 0.00 | 0.00 | 0.00 | 86 | |
| 20260905173841 | 75 | 35 | 0.0 | 0.9 | 0.00 | 0.00 | 0.00 | 87 | |
| 20260905173337 | 75 | 44 | 1.7 | 2.6 | 0.00 | 0.00 | 0.00 | 86 | |
| 20260905172832 | 75 | 30 | 2.6 | 5.2 | 0.00 | 0.00 | 0.00 | 85 | |
| 20260905172330 | 75 | 354 | 0.9 | 2.6 | 0.00 | 0.00 | 0.00 | 87 | |
| 20260905171826 | 75 | 4 | 0.9 | 3.5 | 0.00 | 0.00 | 0.00 | 88 | |
| 20260905171323 | 75 | 1 | 5.2 | 6.1 | 0.00 | 0.00 | 0.00 | 88 | |
| 20260905170819 | 75 | 93 | 3.5 | 6.1 | 0.00 | 0.00 | 0.00 | 86 | |
| 20260905170314 | 76 | 17 | 4.3 | 6.1 | 0.00 | 0.00 | 0.00 | 85 | |
| 20260905165813 | 75 | 38 | 0.9 | 5.2 | 0.00 | 0.00 | 0.00 | 88 | |
| 20260905165310 | 75 | 359 | 3.5 | 5.2 | 0.00 | 0.00 | 0.00 | 86 | |
| 20260905164809 | 75 | 357 | 4.3 | 5.2 | 0.00 | 0.00 | 0.00 | 88 | |
| 20260905164309 | 75 | 357 | 3.5 | 5.2 | 0.00 | 0.00 | 0.00 | 87 | |
| 20260905163805 | 75 | 4 | 4.3 | 7.8 | 0.00 | 0.00 | 0.00 | 87 | |
| 20260905163301 | 74 | 0 | 0.9 | 5.2 | 0.00 | 0.00 | 0.00 | 89 | |
| 20260905162757 | 74 | 9 | 2.6 | 5.2 | 0.00 | 0.00 | 0.00 | 89 | |
| 20260905162256 | 74 | 51 | 0.0 | 7.0 | 0.00 | 0.00 | 0.00 | 90 | |
| 20260905161751 | 74 | 38 | 3.5 | 7.8 | 0.00 | 0.00 | 0.00 | 89 | |
| 20260905161250 | 74 | 347 | 2.6 | 7.0 | 0.00 | 0.00 | 0.00 | 90 | |
| 20260905160748 | 74 | 348 | 5.2 | 7.0 | 0.00 | 0.00 | 0.00 | 90 | |
| 20260905160243 | 74 | 348 | 2.6 | 5.2 | 0.00 | 0.00 | 0.00 | 91 | |
| 20260905155738 | 74 | 356 | 3.5 | 7.0 | 0.00 | 0.00 | 0.00 | 89 | |
| 20260905155237 | 74 | 9 | 1.7 | 5.2 | 0.00 | 0.00 | 0.00 | 91 | |
| 20260905154731 | 74 | 350 | 2.6 | 6.1 | 0.00 | 0.00 | 0.00 | 91 | |
| 20260905154227 | 74 | 6 | 3.5 | 7.8 | 0.00 | 0.00 | 0.00 | 91 | |
| 20260905153722 | 73 | 347 | 3.5 | 3.5 | 0.00 | 0.00 | 0.00 | 93 | |
| 20260905153218 | 73 | 9 | 4.3 | 6.1 | 0.00 | 0.00 | 0.00 | 93 | |
| 20260905152713 | 73 | 325 | 0.9 | 1.7 | 0.00 | 0.00 | 0.00 | 93 | |
| 20260905152207 | 73 | 355 | 2.6 | 5.2 | 0.00 | 0.00 | 0.00 | 93 | |
| 20260905151707 | 73 | 355 | 2.6 | 5.2 | 0.00 | 0.00 | 0.00 | 93 | |
| 20260905151203 | 73 | 340 | 2.6 | 5.2 | 0.00 | 0.00 | 0.00 | 93 | |
| 20260905150658 | 73 | 359 | 3.5 | 3.5 | 0.00 | 0.00 | 0.00 | 93 | |
| 20260905150156 | 73 | 335 | 3.5 | 5.2 | 0.00 | 0.00 | 0.00 | 94 | |
| 20260905145654 | 73 | 8 | 2.6 | 3.5 | 0.00 | 0.00 | 0.00 | 95 | |
| 20260905145149 | 72 | 334 | 3.5 | 6.1 | 0.00 | 0.00 | 0.00 | 95 | |
| 20260905144649 | 72 | 334 | 3.5 | 6.1 | 0.00 | 0.00 | 0.00 | 95 | |
| 20260905144148 | 71 | 2 | 3.5 | 3.5 | 0.00 | 0.00 | 0.00 | 96 | |
| 20260905143649 | 71 | 27 | 1.7 | 5.2 | 0.00 | 0.00 | 0.00 | 96 | |
| 20260905143148 | 71 | 24 | 2.6 | 3.5 | 0.00 | 0.00 | 0.00 | 97 | |
| 20260905142647 | 70 | 35 | 1.7 | 3.5 | 0.00 | 0.00 | 0.00 | 97 | |
| 20260905142147 | 70 | 53 | 2.6 | 6.1 | 0.00 | 0.00 | 0.00 | 97 | |
| 20260905141642 | 70 | 326 | 0.9 | 3.5 | 0.00 | 0.00 | 0.00 | 97 | |
| 20260905141138 | 70 | 326 | 0.9 | 3.5 | 0.00 | 0.00 | 0.00 | 97 | |
| 20260905140633 | 70 | 337 | 3.5 | 7.0 | 0.00 | 0.00 | 0.00 | 97 |